Lyndonville, VT

3:44 PM EST on February 19, 2018 (GMT -0500)
Lyndonville

Weather History for KCDA - February, 2014

Change the Weather History Date:

Saturday, February 22, 2014

  Actual Average (K1V4) Record (K1V4)
Temperature  
Mean Temperature 36 °F -  
Max Temperature 43 °F 30 °F 61 °F (1997)
Min Temperature 29 °F 9 °F -23 °F (1918)
Degree Days  
Heating Degree Days 29    
Moisture  
Dew Point 20 °F    
Average Humidity 59    
Maximum Humidity 96    
Minimum Humidity 23    
Precipitation  
Precipitation 0.00 in - - ()
Sea Level Pressure  
Sea Level Pressure 29.76 in    
Wind  
Wind Speed 7 mph (SW)    
Max Wind Speed 20 mph    
Max Gust Speed 30 mph    
Visibility 8 miles    
Events Fog , Rain    
Averages and records for this station are not official NWS values.
T = Trace of Precipitation, MM = Missing Value Source: NWS Daily Summary

Daily Weather History Graph

Daily Weather History Graph

Search for Another Location

Airport or City:

Trip Planner

Search our weather history database for the weather conditions in past years. The results will help you decide how hot, cold, wet, or windy it might be!

Date:

Astronomy

Feb. 22, 2014 Rise Set
Actual Time 6:37 AM EST 5:26 PM EST
Civil Twilight 6:07 AM EST 5:56 PM EST
Nautical Twilight 5:33 AM EST 6:29 PM EST
Astronomical Twilight 5:00 AM EST 7:03 PM EST
Moon 12:35 AM EST (2/22) 10:28 AM EST (2/22)
Length of Visible Light 11h 48m
Length of Day
10h 49m
Waning Gibbous, 50% of the Moon is Illuminated
Feb 22
Waning Gibbous
Feb 22
Last Quarter
Mar 1
New
Mar 8
First Quarter
Mar 16
Full

Hourly Weather History & Observations

Time (EST) Temp. Windchill Dew Point Humidity Pressure Visibility Wind Dir Wind Speed Gust Speed Precip Events Conditions
12:15 AM 32.2 °F 28.9 °F 31.1 °F 96% 29.74 in 0.2 mi SSW 3.5 mph - N/A Fog Fog
12:35 AM 32.0 °F - 30.7 °F 95% 29.74 in 0.2 mi Calm Calm - N/A Fog Fog
12:55 AM 32.2 °F 28.9 °F 30.9 °F 95% 29.75 in 0.5 mi SSE 3.5 mph - N/A Rain Light Rain
1:15 AM 32.5 °F - 31.1 °F 94% 29.75 in 0.2 mi Calm Calm - N/A Fog Fog
1:35 AM 32.5 °F - 31.1 °F 94% 29.76 in 0.2 mi Calm Calm - N/A Fog Fog
1:55 AM 32.2 °F - 30.9 °F 95% 29.76 in 0.5 mi Calm Calm - N/A Fog Fog
2:15 AM 32.0 °F 25.6 °F 30.7 °F 95% 29.76 in 0.5 mi SSE 6.9 mph - N/A Fog Fog
2:35 AM 32.0 °F 24.8 °F 30.6 °F 94% 29.76 in 0.2 mi SSE 8.1 mph - N/A   Light Drizzle
2:55 AM 31.8 °F 28.5 °F 30.0 °F 93% 29.76 in 0.2 mi South 3.5 mph - N/A   Light Freezing Rain
3:15 AM 31.6 °F - 29.8 °F 93% 29.76 in 0.2 mi Calm Calm - N/A Fog Light Freezing Fog
3:35 AM 31.3 °F 26.6 °F 29.5 °F 93% 29.76 in 0.2 mi South 4.6 mph - N/A Fog Light Freezing Fog
3:55 AM 31.1 °F 25.4 °F 29.3 °F 93% 29.76 in 0.8 mi South 5.8 mph - N/A   Overcast
4:15 AM 31.1 °F 25.4 °F 29.3 °F 93% 29.76 in 0.2 mi South 5.8 mph - N/A Fog Light Freezing Fog
4:35 AM 31.1 °F 25.4 °F 29.3 °F 93% 29.77 in 0.2 mi South 5.8 mph - N/A Fog Light Freezing Fog
4:55 AM 30.9 °F 24.3 °F 29.1 °F 93% 29.77 in 2.0 mi South 6.9 mph - N/A   Overcast
5:15 AM 30.2 °F 22.6 °F 28.4 °F 93% 29.76 in 5.0 mi SSE 8.1 mph - N/A   Scattered Clouds
5:35 AM 30.2 °F 26.7 °F 28.4 °F 93% 29.77 in 10.0 mi SSW 3.5 mph - N/A   Scattered Clouds
5:55 AM 30.0 °F 25.2 °F 28.2 °F 93% 29.77 in 10.0 mi SW 4.6 mph - N/A   Clear
6:15 AM 30.2 °F 25.4 °F 28.2 °F 92% 29.78 in 10.0 mi West 4.6 mph - N/A   Clear
6:35 AM 29.8 °F 23.9 °F 27.9 °F 92% 29.79 in 10.0 mi South 5.8 mph - N/A   Clear
6:55 AM 29.5 °F 21.1 °F 27.5 °F 92% 29.79 in 10.0 mi South 9.2 mph - N/A   Clear
7:15 AM 29.5 °F 23.4 °F 27.5 °F 92% 29.79 in 10.0 mi South 5.8 mph - N/A   Clear
7:35 AM 29.7 °F 26.1 °F 27.5 °F 92% 29.80 in 10.0 mi SW 3.5 mph - N/A   Clear
7:55 AM 30.2 °F 26.7 °F 27.7 °F 90% 29.80 in 10.0 mi SSW 3.5 mph - N/A   Clear
8:15 AM 31.5 °F - 28.2 °F 88% 29.81 in 10.0 mi Calm Calm - N/A   Clear
8:35 AM 32.0 °F 25.6 °F 27.1 °F 82% 29.80 in 10.0 mi South 6.9 mph - N/A   Clear
8:55 AM 32.7 °F 25.0 °F 26.6 °F 78% 29.79 in 10.0 mi South 9.2 mph - N/A   Clear
9:15 AM 33.8 °F 27.0 °F 26.6 °F 75% 29.79 in 10.0 mi South 8.1 mph - N/A   Clear
9:35 AM 35.4 °F 28.4 °F 25.5 °F 67% 29.78 in 10.0 mi South 9.2 mph - N/A   Clear
9:55 AM 36.9 °F 30.7 °F 25.2 °F 63% 29.78 in 10.0 mi SSW 8.1 mph - N/A   Clear
10:15 AM 37.0 °F 29.8 °F 24.6 °F 61% 29.76 in 10.0 mi South 10.4 mph 16.1 mph N/A   Clear
10:35 AM 38.7 °F 31.8 °F 25.7 °F 60% 29.76 in 10.0 mi South 10.4 mph - N/A   Clear
10:55 AM 38.7 °F 30.1 °F 25.0 °F 58% 29.76 in 10.0 mi SSW 15.0 mph 18.4 mph N/A   Clear
11:15 AM 39.4 °F 31.1 °F 21.7 °F 49% 29.76 in 10.0 mi SW 15.0 mph 25.3 mph N/A   Mostly Cloudy
11:35 AM 40.8 °F 32.3 °F 21.7 °F 47% 29.75 in 10.0 mi SW 17.3 mph 24.2 mph N/A   Mostly Cloudy
11:55 AM 42.1 °F 33.6 °F 20.5 °F 42% 29.74 in 10.0 mi SSW 18.4 mph 26.5 mph N/A   Mostly Cloudy
12:15 PM 41.9 °F 34.3 °F 20.5 °F 42% 29.73 in 10.0 mi SSW 15.0 mph 24.2 mph N/A   Mostly Cloudy
12:35 PM 42.8 °F 35.8 °F 20.3 °F 41% 29.72 in 10.0 mi SSW 13.8 mph 23.0 mph N/A   Scattered Clouds
12:55 PM 43.0 °F 36.8 °F 19.4 °F 39% 29.71 in 10.0 mi SW 11.5 mph 26.5 mph N/A   Scattered Clouds
1:15 PM 42.3 °F 33.6 °F 19.8 °F 41% 29.71 in 10.0 mi SSW 19.6 mph 28.8 mph N/A   Scattered Clouds
1:35 PM 41.9 °F 35.9 °F 20.3 °F 42% 29.71 in 10.0 mi SW 10.4 mph 21.9 mph N/A   Mostly Cloudy
1:55 PM 41.4 °F 32.4 °F 19.6 °F 42% 29.71 in 10.0 mi SSW 19.6 mph 28.8 mph N/A   Mostly Cloudy
2:15 PM 41.7 °F 32.9 °F 20.3 °F 42% 29.71 in 10.0 mi SW 19.6 mph 26.5 mph N/A   Mostly Cloudy
2:35 PM 41.9 °F 35.9 °F 20.1 °F 42% 29.70 in 10.0 mi SW 10.4 mph 24.2 mph N/A   Scattered Clouds
2:55 PM 41.5 °F 33.5 °F 19.2 °F 41% 29.70 in 10.0 mi SW 16.1 mph 23.0 mph N/A   Mostly Cloudy
3:15 PM 41.2 °F 33.0 °F 19.4 °F 42% 29.70 in 10.0 mi SW 16.1 mph 24.2 mph N/A   Overcast
3:35 PM 41.4 °F 34.0 °F 18.9 °F 41% 29.70 in 10.0 mi SW 13.8 mph 25.3 mph N/A   Overcast
3:55 PM 41.7 °F 33.7 °F 18.5 °F 39% 29.70 in 10.0 mi SW 16.1 mph 24.2 mph N/A   Overcast
4:15 PM 42.1 °F 33.3 °F 17.2 °F 37% 29.70 in 10.0 mi SW 19.6 mph 27.6 mph N/A   Mostly Cloudy
4:35 PM 41.9 °F 33.1 °F 17.6 °F 38% 29.70 in 10.0 mi WSW 19.6 mph 27.6 mph N/A   Scattered Clouds
4:55 PM 41.9 °F 34.0 °F 17.4 °F 37% 29.70 in 10.0 mi SW 16.1 mph 29.9 mph N/A   Scattered Clouds
5:15 PM 41.0 °F 33.1 °F 15.8 °F 36% 29.70 in 10.0 mi SW 15.0 mph 23.0 mph N/A   Scattered Clouds
5:35 PM 41.0 °F 33.5 °F 14.4 °F 34% 29.71 in 10.0 mi SW 13.8 mph 28.8 mph N/A   Clear
5:55 PM 40.3 °F 31.3 °F 15.8 °F 37% 29.72 in 10.0 mi SW 18.4 mph 27.6 mph N/A   Clear
6:15 PM 40.5 °F 33.2 °F 16.0 °F 37% 29.72 in 10.0 mi SW 12.7 mph 25.3 mph N/A   Clear
6:35 PM 39.6 °F 31.7 °F 14.0 °F 35% 29.73 in 10.0 mi SW 13.8 mph 20.7 mph N/A   Clear
6:55 PM 39.2 °F 31.2 °F 12.0 °F 33% 29.74 in 10.0 mi SW 13.8 mph 18.4 mph N/A   Clear
7:15 PM 39.0 °F 32.3 °F 9.3 °F 29% 29.75 in 10.0 mi SW 10.4 mph 19.6 mph N/A   Clear
7:35 PM 38.7 °F 30.9 °F 5.5 °F 25% 29.75 in 10.0 mi SW 12.7 mph 19.6 mph N/A   Clear
7:55 PM 38.5 °F 30.7 °F 3.7 °F 23% 29.75 in 10.0 mi SW 12.7 mph 19.6 mph N/A   Clear
8:15 PM 37.9 °F 30.0 °F 3.0 °F 23% 29.76 in 10.0 mi SW 12.7 mph 24.2 mph N/A   Clear
8:35 PM 37.6 °F 30.5 °F 2.5 °F 23% 29.77 in 10.0 mi WSW 10.4 mph 18.4 mph N/A   Clear
8:55 PM 36.9 °F 30.7 °F 2.1 °F 23% 29.78 in 10.0 mi WSW 8.1 mph - N/A   Clear
9:15 PM 36.0 °F 31.1 °F 2.1 °F 24% 29.79 in 10.0 mi WSW 5.8 mph - N/A   Clear
9:35 PM 35.6 °F 30.7 °F 1.4 °F 24% 29.80 in 10.0 mi WSW 5.8 mph - N/A   Clear
9:55 PM 35.1 °F 26.4 °F 3.7 °F 27% 29.81 in 10.0 mi West 12.7 mph 19.6 mph N/A   Clear
10:15 PM 34.5 °F 27.3 °F 4.1 °F 28% 29.81 in 10.0 mi West 9.2 mph 16.1 mph N/A   Clear
10:35 PM 35.1 °F 26.9 °F 4.1 °F 27% 29.82 in 10.0 mi West 11.5 mph 20.7 mph N/A   Clear
10:55 PM 34.5 °F 26.2 °F 4.1 °F 28% 29.82 in 10.0 mi West 11.5 mph 18.4 mph N/A   Clear
11:15 PM 32.9 °F 27.5 °F 4.8 °F 31% 29.83 in 10.0 mi West 5.8 mph 18.4 mph N/A   Clear
11:35 PM 33.6 °F 25.0 °F 3.2 °F 28% 29.84 in 10.0 mi West 11.5 mph 26.5 mph N/A   Clear
11:55 PM 33.1 °F 26.1 °F 3.6 °F 29% 29.85 in 10.0 mi West 8.1 mph 18.4 mph N/A   Clear